Flag for Germany Weather past 2 weeks in Görlitz, Saxony, Germany

Now
68 °F

Overcast.


Feels Like: 68 °F
Forecast: 53 / 70 °F
Wind: 5 mph from Southwest

Location: Goerlitz

Current Time: Aug 22, 2014 at 6:07:56 PM

Latest Report: Aug 22, 2014 at 5:00 PM


Visibility: 41 mi

Pressure: 29.92 "Hg

Humidity: 46%

Dew point: 47 °F

Location of GörlitzLocation

Historic Weather in Görlitz — Graph

°F

Görlitz temperature yesterday

Maximum temperature yesterday: 67 °F (at 3:00 PM)
Minimum temperature yesterday: 50 °F (at 4:00 AM)
Average temperature yesterday: 58 °F

Past Weeks' High & Low Weather Summary

 TemperatureHumidityPressure
High83 °F (Aug 10, 5:00 PM)97% (Aug 10, 6:00 AM)30.04 "Hg (Aug 10, 6:00 AM)
Low49 °F (Aug 22, 4:00 AM)43% (Aug 8, 6:00 PM)29.63 "Hg (Aug 14, 12:00 AM)
Average63 °F74%29.89 "Hg
* Reported Aug 7 5:00 PM — Aug 22 5:00 PM, Görlitz, Weather by CustomWeather, © 2014

Note: Actual official high and low records may vary slightly from our data, if they occured in-between our weather recording intervals... More about our weather records

Advertising

Görlitz weather history for previous 24 hours

 ConditionsComfort  
Time TempWeatherWind HumidityBarometerVisibility
5:00 PM
Aug 22
68 °FOvercast.5 mph46%29.92 "Hg40 mi
4:00 PM67 °FOvercast.5 mph54%29.93 "Hg37 mi
3:00 PM68 °FPartly sunny.7 mph44%29.93 "Hg37 mi
2:00 PM66 °FPartly sunny.3 mph50%29.96 "Hg34 mi
1:00 PM67 °FPartly sunny.5 mph52%29.97 "Hg28 mi
12:00 PM64 °FScattered clouds.3 mph57%29.99 "Hg31 mi
11:00 AM60 °FOvercast.3 mph71%30.00 "Hg37 mi
10:00 AM59 °FOvercast.2 mph74%30.00 "Hg37 mi
9:00 AM57 °FPartly sunny.3 mph76%30.00 "Hg28 mi
8:00 AM57 °FOvercast.2 mph72%29.99 "Hg25 mi
7:00 AM52 °FPassing clouds.1 mph79%30.01 "Hg22 mi
6:00 AM50 °FFog.1 mph82%30.01 "Hg28 mi
5:00 AM49 °FPassing clouds.3 mph82%30.01 "Hg28 mi
4:00 AM49 °FPassing clouds.5 mph91%30.02 "Hg22 mi
3:00 AM51 °FPassing clouds.2 mph91%30.03 "Hg19 mi
2:00 AM50 °FPassing clouds.1 mph94%30.03 "Hg22 mi
1:00 AM50 °FPassing clouds.1 mph94%30.04 "Hg25 mi
12:00 AM51 °FPassing clouds.1 mph91%30.04 "Hg25 mi
11:00 PM
Aug 21
53 °FPassing clouds.1 mph83%30.04 "Hg25 mi
10:00 PM55 °FPassing clouds.2 mph71%30.03 "Hg28 mi
9:00 PM57 °FPassing clouds.1 mph65%30.02 "Hg28 mi
8:00 PM60 °FScattered clouds.1 mph55%30.00 "Hg34 mi
7:00 PM64 °FScattered clouds.2 mph46%29.99 "Hg34 mi
6:00 PM65 °FPassing clouds.3 mph45%29.99 "Hg34 mi
Weather by CustomWeather, © 2014

See weather overviewHow to use our weather pages